Alamosa, CO

7:29 AM MDT on October 17, 2019 (GMT -0600)
San Luis Valley Regional / Bergman Field

Weather History for KALS - June, 2019

Change the Weather History Date:

Sunday, June 9, 2019

  Actual Average Record
Temperature  
Mean Temperature 59 °F 58 °F  
Max Temperature 79 °F 77 °F 90 °F (1981)
Min Temperature 38 °F 39 °F 24 °F (2008)
Degree Days  
Heating Degree Days 6 7  
Month to date heating degree days 68 74  
Since 1 June heating degree days 68 74  
Since 1 July heating degree days 8493 8500  
Cooling Degree Days 0 0  
Month to date cooling degree days 0 0  
Year to date cooling degree days 0 0  
Since 1 June cooling degree days 0 0  
Growing Degree Days 8 (Base 50)    
Moisture  
Dew Point 33 °F    
Average Humidity 51    
Maximum Humidity 83    
Minimum Humidity 18    
Precipitation  
Precipitation 0.00 in 0.01 in 0.36 in (1990)
Month to date precipitation 0.15 0.13  
Year to date precipitation 4.84 2.35  
Snow  
Snow 0.00 in 0.00 in 0.00 in (2002)
Month to date snowfall 0.0 0.0  
Since 1 June snowfall 0.0 0.0  
Since 1 July snowfall 54.9 27.6  
Snow Depth 0.00 in    
Sea Level Pressure  
Sea Level Pressure 30.11 in    
Wind  
Wind Speed 9 mph (ESE)    
Max Wind Speed 22 mph    
Max Gust Speed 27 mph    
Visibility 10 miles    
Events      
T = Trace of Precipitation, MM = Missing Value Source: NWS Daily Summary

Daily Weather History Graph

Daily Weather History Graph

Search for Another Location

Airport or City:

Astronomy

Jun. 09, 2019 Rise Set
Actual Time 5:42 AM MDT 8:23 PM MDT
Civil Twilight 5:11 AM MDT 8:54 PM MDT
Nautical Twilight 4:32 AM MDT 9:32 PM MDT
Astronomical Twilight 3:49 AM MDT 10:16 PM MDT
Moon 12:19 PM MDT (6/9) 1:08 AM MDT (6/9)
Length of Visible Light 15h 42m
Length of Day
14h 41m
Waxing Crescent, 44% of the Moon is Illuminated
Jun 9
Waxing Crescent
Jun 10
First Quarter
Jun 17
Full
Jun 25
Last Quarter
Jul 2
New

Hourly Weather History & Observations

Time (MDT) Temp. Windchill Dew Point Humidity Pressure Visibility Wind Dir Wind Speed Gust Speed Precip Events Conditions
12:52 AM 44.1 °F - 28.9 °F 55% 29.99 in 10.0 mi Calm Calm - N/A   Clear
1:52 AM 45.0 °F 41.2 °F 33.1 °F 63% 29.98 in 10.0 mi SE 6.9 mph - N/A   Clear
2:52 AM 42.1 °F 38.4 °F 30.0 °F 62% 29.99 in 10.0 mi SSE 5.8 mph - N/A   Clear
3:52 AM 46.9 °F - 39.9 °F 77% 29.99 in 10.0 mi ESE 5.8 mph - N/A   Clear
4:52 AM 43.0 °F - 37.9 °F 82% 30.03 in 10.0 mi Calm Calm - N/A   Clear
5:52 AM 45.0 °F 42.6 °F 39.0 °F 80% 30.04 in 10.0 mi SE 4.6 mph - N/A   Clear
6:52 AM 43.0 °F 40.3 °F 37.0 °F 80% 30.08 in 10.0 mi ESE 4.6 mph - N/A   Clear
7:52 AM 51.1 °F - 39.0 °F 63% 30.11 in 10.0 mi North - - N/A   Clear
8:52 AM 59.0 °F - 34.0 °F 39% 30.10 in 10.0 mi East 9.2 mph - N/A   Clear
9:52 AM 62.1 °F - 34.0 °F 35% 30.11 in 10.0 mi North - - N/A   Clear
10:52 AM 64.9 °F - 30.9 °F 28% 30.11 in 10.0 mi ESE 4.6 mph - N/A   Clear
11:52 AM 68.0 °F - 32.0 °F 26% 30.12 in 10.0 mi East 10.4 mph - N/A   Clear
12:52 PM 70.0 °F - 30.9 °F 24% 30.12 in 10.0 mi SE 10.4 mph - N/A   Clear
1:52 PM 73.9 °F - 32.0 °F 21% 30.07 in 10.0 mi North - - N/A   Clear
2:52 PM 75.9 °F - 30.9 °F 19% 30.07 in 10.0 mi SSE 12.7 mph 19.6 mph N/A   Clear
3:52 PM 75.9 °F - 28.9 °F 18% 30.06 in 10.0 mi SSE 11.5 mph 21.9 mph N/A   Clear
4:52 PM 72.0 °F - 30.9 °F 22% 30.11 in 10.0 mi NE 11.5 mph - N/A   Overcast
5:52 PM 66.9 °F - 34.0 °F 30% 30.14 in 10.0 mi East 16.1 mph 24.2 mph N/A   Mostly Cloudy
6:52 PM 60.1 °F - 36.0 °F 41% 30.19 in 10.0 mi North - - N/A   Scattered Clouds
7:52 PM 55.0 °F - 35.1 °F 47% 30.21 in 10.0 mi North - - N/A   Mostly Cloudy
8:52 PM 51.1 °F - 32.0 °F 48% 30.22 in 10.0 mi East 10.4 mph - N/A   Partly Cloudy
9:52 PM 50.0 °F - 32.0 °F 50% 30.24 in 10.0 mi East 13.8 mph - N/A   Clear
10:52 PM 48.0 °F - 30.9 °F 52% 30.25 in 10.0 mi East 16.1 mph - N/A   Clear
11:52 PM 46.9 °F - 30.0 °F 52% 30.27 in 10.0 mi East 11.5 mph - N/A   Clear